User: anonymous   Login
Location: Wien
(48.2082°N, 16.3738°E)
Time: 19:39:43
(UTC+02:00)
Language:

NOAA 18 - Orbit

View from above orbital plane
View from above orbital plane
View from above satellite
View from above satellite

Ground track
Ground track

The orbit data is extracted from the following two-line orbital elements,

1 28654U 05018A   19295.87009202 +.00000074 +00000-0 +64980-4 0  9995
2 28654 099.0814 344.6419 0014410 179.2247 180.8949 14.12460725743231
Epoch (UTC): 22 October 2019 20:52:55
Eccentricity: 0.0014410
inclination: 99.0814°
perigee height: 840 km
apogee height: 861 km
right ascension of ascending node: 344.6419°
argument of perigee: 179.2247°
revolutions per day: 14.12460725
mean anomaly at epoch: 180.8949°
orbit number at epoch: 74323

The dashed part of the orbit path shows where the satellite is in the earth's shadow,  

DLR